Flight Track Log - Related Links

Times and Time Zones

All times are in EDT time to prevent confusion due to time zone crossing. See the WEW1540 flight status page for this flight to view local times or setup timezone preferences in your user account.


Time Position Orientation Groundspeed Altitude Reporting Facility
EDT Latitude Longitude Course Direction KTS MPH feet Rate Location/Type
Thu 07:56:19 PM 50.3000 -107.5000 72° East 150 173 8,000  Level Winnipeg Center
Thu 07:58:00 PM 50.3293 -107.3828 69° East  Level FlightAware Approximate
Thu 08:00:19 PM 50.3667 -107.1833 77° East 210 242 9,000  Level Winnipeg Center
Thu 08:01:19 PM 50.3667 -107.0833 90° East 210 242 9,000  Level Winnipeg Center
Thu 08:02:19 PM 50.3833 -107.0167 69° East 210 242 9,000  Level Winnipeg Center
Thu 08:03:19 PM 50.4000 -106.9167 75° East 210 242 9,000  Level Winnipeg Center
Thu 08:04:19 PM 50.4167 -106.8333 73° East 210 242 9,000  Level Winnipeg Center
Thu 08:05:00 PM 50.3974 -106.8701 77° East  Level FlightAware Approximate
Thu 08:05:19 PM 50.4167 -106.7333 90° East 200 230 9,000  Level Winnipeg Center
Thu 08:06:19 PM 50.4333 -106.6500 73° East 210 242 9,000  Level Winnipeg Center
Thu 08:07:19 PM 50.4333 -106.5667 90° East 210 242 9,000  Level Winnipeg Center
Thu 08:08:19 PM 50.4500 -106.4667 75° East 200 230 9,000  Level Winnipeg Center
Thu 08:09:19 PM 50.4667 -106.4000 69° East 210 242 9,000  Level Winnipeg Center
Thu 08:10:19 PM 50.4667 -106.2833 90° East 210 242 9,000  Level Winnipeg Center
Thu 08:11:19 PM 50.5000 -106.2167 52° Northeast 210 242 9,000  Level Winnipeg Center
Thu 08:12:19 PM 50.5000 -106.1167 90° East 210 242 9,000 50 Level Winnipeg Center
Thu 08:13:19 PM 50.5167 -106.0333 73° East 210 242 9,100 100 Climbing Winnipeg Center
Thu 08:14:19 PM 50.5167 -105.9333 90° East 210 242 9,200  Climbing Winnipeg Center
Thu 08:15:19 PM 50.5333 -105.8500 73° East 220 253 9,100  Descending Winnipeg Center
Thu 08:16:19 PM 50.5500 -105.7500 75° East 220 253 9,200  Climbing Winnipeg Center
Thu 08:17:19 PM 50.5500 -105.6500 90° East 220 253 9,100 -50 Descending Winnipeg Center
Thu 08:18:19 PM 50.5667 -105.5667 72° East 220 253 9,100  Level Winnipeg Center
Thu 08:19:19 PM 50.5833 -105.4667 75° East 210 242 9,100 -400 Level Winnipeg Center
Thu 08:20:19 PM 50.5667 -105.3833 107° East 220 253 8,300 -700 Descending Winnipeg Center
Thu 08:21:19 PM 50.5500 -105.3000 107° East 220 253 7,700 -650 Descending Winnipeg Center
Thu 08:22:19 PM 50.5167 -105.1833 114° Southeast 220 253 7,000 -650 Descending Winnipeg Center
Thu 08:23:19 PM 50.5167 -105.1000 90° East 220 253 6,400 -650 Descending Winnipeg Center
Thu 08:24:19 PM 50.5000 -105.0000 105° East 210 242 5,700 -650 Descending Winnipeg Center
Thu 08:25:19 PM 50.5000 -104.9167 90° East 200 230 5,100 -600 Descending Winnipeg Center
Thu 08:26:19 PM 50.4833 -104.8333 107° East 200 230 4,500 -700 Descending Winnipeg Center
Thu 08:27:19 PM 50.4500 -104.7500 122° Southeast 190 219 3,700 -1,000 Descending Winnipeg Center
Thu 08:28:19 PM 50.4333 -104.7000 118° Southeast 180 207 2,500 -900 Descending Winnipeg Center
Thu 08:29:19 PM 50.4000 -104.6667 147° Southeast 100 115 1,900 -600 Descending Winnipeg Center

Login

Don't have an account? Register now (free) for customized features, flight alerts, and more!